| time (UTC) | temp C | wind direction | speed KPH | gust KPH | rain 1hr cm | rain 24hr cm | rain mn cm | humidity % | barometer mb |
| 20260510234544 | -17 | 0.0 | 0.0 | 0.00 | 0.00 | 0.00 | 1023.5 | ||
| 20260510234040 | -17 | 0.0 | 0.0 | 0.00 | 0.00 | 0.00 | 1023.5 | ||
| 20260510233537 | -17 | 0.0 | 0.0 | 0.00 | 0.00 | 0.00 | 1023.4 | ||
| 20260510233033 | -17 | 0.0 | 0.0 | 0.00 | 0.00 | 0.00 | 1023.2 | ||
| 20260510232529 | -17 | 0.0 | 0.0 | 0.00 | 0.00 | 0.00 | 1023.5 | ||
| 20260510232025 | -17 | 0.0 | 0.0 | 0.00 | 0.00 | 0.00 | 1023.5 | ||
| 20260510231523 | -17 | 0.0 | 0.0 | 0.00 | 0.00 | 0.00 | 1023.4 | ||
| 20260510231020 | 21 | 77 | 8.0 | 8.0 | 0.00 | 0.00 | 0.00 | 74 | 1023.4 |
| 20260510230520 | 21 | 77 | 8.0 | 8.0 | 0.00 | 0.00 | 0.00 | 74 | 1023.4 |
| 20260510230017 | 21 | 77 | 8.0 | 8.0 | 0.00 | 0.00 | 0.00 | 74 | 1023.1 |
| 20260510225514 | 21 | 77 | 8.0 | 8.0 | 0.00 | 0.00 | 0.00 | 74 | 1023.2 |
| 20260510225009 | 21 | 77 | 8.0 | 8.0 | 0.00 | 0.00 | 0.00 | 74 | 1023.1 |
| 20260510224505 | 21 | 77 | 8.0 | 8.0 | 0.00 | 0.00 | 0.00 | 74 | 1023.1 |
| 20260510224002 | 21 | 77 | 8.0 | 8.0 | 0.00 | 0.00 | 0.00 | 74 | 1023.3 |
| 20260510223500 | 21 | 77 | 8.0 | 8.0 | 0.00 | 0.00 | 0.00 | 74 | 1023.1 |
| 20260510222956 | 21 | 77 | 8.0 | 8.0 | 0.00 | 0.00 | 0.00 | 74 | 1023.0 |
| 20260510222455 | 21 | 77 | 8.0 | 8.0 | 0.00 | 0.00 | 0.00 | 74 | 1023.0 |
| 20260510221950 | 21 | 77 | 8.0 | 8.0 | 0.00 | 0.00 | 0.00 | 74 | 1022.9 |
| 20260510221446 | 21 | 77 | 8.0 | 8.0 | 0.00 | 0.00 | 0.00 | 74 | 1022.7 |
| 20260510220942 | 21 | 68 | 14.5 | 14.5 | 0.00 | 0.00 | 0.00 | 74 | 1022.7 |
| 20260510220438 | 21 | 68 | 14.5 | 14.5 | 0.00 | 0.00 | 0.00 | 74 | 1022.5 |
| 20260510215935 | 21 | 68 | 14.5 | 14.5 | 0.00 | 0.00 | 0.00 | 74 | 1022.8 |
| 20260510215432 | 21 | 31 | 6.4 | 16.1 | 0.00 | 0.00 | 0.00 | 74 | 1022.5 |
| 20260510214930 | 21 | 31 | 6.4 | 16.1 | 0.00 | 0.00 | 0.00 | 74 | 1022.2 |
| 20260510214427 | 21 | 104 | 11.3 | 11.3 | 0.00 | 0.00 | 0.00 | 74 | 1022.3 |
| 20260510213924 | 21 | 23 | 11.3 | 11.3 | 0.00 | 0.00 | 0.00 | 74 | 1022.5 |
| 20260510213420 | 21 | 31 | 6.4 | 19.3 | 0.00 | 0.00 | 0.00 | 74 | 1022.6 |
| 20260510212916 | 21 | 23 | 8.0 | 9.7 | 0.00 | 0.00 | 0.00 | 74 | 1022.5 |
| 20260510212414 | 21 | 94 | 8.0 | 8.0 | 0.00 | 0.00 | 0.00 | 74 | 1022.5 |
| 20260510211910 | 21 | 94 | 8.0 | 8.0 | 0.00 | 0.00 | 0.00 | 74 | 1022.5 |
| 20260510211407 | 21 | 94 | 8.0 | 8.0 | 0.00 | 0.00 | 0.00 | 74 | 1022.6 |
| 20260510210902 | 21 | 94 | 8.0 | 8.0 | 0.00 | 0.00 | 0.00 | 74 | 1022.7 |
| 20260510210357 | 21 | 77 | 9.7 | 14.5 | 0.00 | 0.00 | 0.00 | 74 | 1022.6 |
| 20260510205856 | 21 | 106 | 6.4 | 9.7 | 0.00 | 0.00 | 0.00 | 74 | 1022.5 |
| 20260510205352 | 21 | 50 | 9.7 | 16.1 | 0.00 | 0.00 | 0.00 | 74 | 1022.9 |
| 20260510204843 | 21 | 87 | 11.3 | 11.3 | 0.00 | 0.00 | 0.00 | 74 | 1022.8 |
| 20260510204339 | 21 | 49 | 16.1 | 16.1 | 0.00 | 0.00 | 0.00 | 74 | 1022.9 |
| 20260510203836 | 21 | 60 | 9.7 | 17.7 | 0.00 | 0.00 | 0.00 | 74 | 1022.9 |
| 20260510203333 | 21 | 81 | 3.2 | 8.0 | 0.00 | 0.00 | 0.00 | 74 | 1023.1 |
| 20260510202828 | 21 | 47 | 4.8 | 9.7 | 0.00 | 0.00 | 0.00 | 74 | 1022.9 |
| 20260510202324 | 21 | 47 | 4.8 | 9.7 | 0.00 | 0.00 | 0.00 | 74 | 1023.1 |
| 20260510201821 | 21 | 37 | 6.4 | 20.9 | 0.00 | 0.00 | 0.00 | 74 | 1023.0 |
| 20260510201318 | 21 | 37 | 6.4 | 27.4 | 0.00 | 0.00 | 0.00 | 74 | 1023.1 |
| 20260510200815 | 21 | 23 | 8.0 | 8.0 | 0.00 | 0.00 | 0.00 | 74 | 1022.9 |
| 20260510200312 | 21 | 355 | 8.0 | 11.3 | 0.00 | 0.00 | 0.00 | 74 | 1023.1 |
| 20260510195808 | 21 | 49 | 9.7 | 11.3 | 0.00 | 0.00 | 0.00 | 74 | 1023.2 |
| 20260510195306 | 21 | 19 | 14.5 | 14.5 | 0.00 | 0.00 | 0.00 | 74 | 1023.0 |
| 20260510194805 | 21 | 18 | 19.3 | 20.9 | 0.00 | 0.00 | 0.00 | 74 | 1023.1 |
| 20260510194302 | 21 | 57 | 11.3 | 11.3 | 0.00 | 0.00 | 0.00 | 74 | 1023.2 |
| 20260510193757 | 21 | 57 | 11.3 | 11.3 | 0.00 | 0.00 | 0.00 | 74 | 1023.1 |
| 20260510193252 | 21 | 66 | 8.0 | 17.7 | 0.00 | 0.00 | 0.00 | 74 | 1023.0 |
| 20260510192748 | 21 | 75 | 9.7 | 16.1 | 0.00 | 0.00 | 0.00 | 74 | 1022.9 |
| 20260510192244 | 21 | 74 | 11.3 | 11.3 | 0.00 | 0.00 | 0.00 | 74 | 1023.1 |
| 20260510191740 | 21 | 78 | 4.8 | 6.4 | 0.00 | 0.00 | 0.00 | 74 | 1023.0 |
| 20260510191236 | 21 | 356 | 8.0 | 14.5 | 0.00 | 0.00 | 0.00 | 74 | 1022.9 |
| 20260510190734 | 21 | 356 | 8.0 | 14.5 | 0.00 | 0.00 | 0.00 | 74 | 1022.9 |
| 20260510190231 | 21 | 357 | 9.7 | 16.1 | 0.00 | 0.00 | 0.00 | 74 | 1023.0 |
| 20260510185727 | 21 | 30 | 9.7 | 14.5 | 0.00 | 0.00 | 0.00 | 74 | 1022.9 |
| 20260510185226 | 21 | 59 | 4.8 | 6.4 | 0.00 | 0.00 | 0.00 | 74 | 1022.9 |
| 20260510184721 | 21 | 58 | 22.5 | 22.5 | 0.00 | 0.00 | 0.00 | 74 | 1022.8 |
| 20260510184219 | 21 | 351 | 6.4 | 12.9 | 0.00 | 0.00 | 0.00 | 74 | 1022.6 |
| 20260510183714 | 21 | 333 | 9.7 | 14.5 | 0.00 | 0.00 | 0.00 | 74 | 1022.6 |
| 20260510183208 | 21 | 36 | 8.0 | 16.1 | 0.00 | 0.00 | 0.00 | 74 | 1022.7 |
| 20260510182705 | 21 | 72 | 6.4 | 12.9 | 0.00 | 0.00 | 0.00 | 74 | 1022.6 |
| 20260510182201 | 21 | 92 | 12.9 | 12.9 | 0.00 | 0.00 | 0.00 | 74 | 1022.8 |
| 20260510181658 | 21 | 8 | 4.8 | 14.5 | 0.00 | 0.00 | 0.00 | 74 | 1023.0 |
| 20260510181155 | 21 | 52 | 12.9 | 20.9 | 0.00 | 0.00 | 0.00 | 74 | 1022.9 |
| 20260510180651 | 21 | 94 | 4.8 | 9.7 | 0.00 | 0.00 | 0.00 | 74 | 1022.7 |
| 20260510180149 | 21 | 327 | 8.0 | 12.9 | 0.00 | 0.00 | 0.00 | 74 | 1022.8 |
| 20260510175644 | 21 | 57 | 9.7 | 14.5 | 0.00 | 0.00 | 0.00 | 74 | 1022.7 |
| 20260510175140 | 21 | 71 | 11.3 | 14.5 | 0.00 | 0.00 | 0.00 | 74 | 1022.6 |
| 20260510174638 | 21 | 22 | 4.8 | 8.0 | 0.00 | 0.00 | 0.00 | 74 | 1022.8 |
| 20260510174136 | 21 | 92 | 14.5 | 14.5 | 0.00 | 0.00 | 0.00 | 74 | 1022.9 |
| 20260510173631 | 21 | 84 | 8.0 | 11.3 | 0.00 | 0.00 | 0.00 | 74 | 1022.6 |
| 20260510173127 | 21 | 49 | 9.7 | 12.9 | 0.00 | 0.00 | 0.00 | 74 | 1022.6 |
| 20260510172623 | 21 | 64 | 14.5 | 14.5 | 0.00 | 0.00 | 0.00 | 74 | 1022.6 |
| 20260510172120 | 21 | 123 | 3.2 | 8.0 | 0.00 | 0.00 | 0.00 | 74 | 1022.6 |
| 20260510171617 | 20 | 71 | 20.9 | 20.9 | 0.00 | 0.00 | 0.00 | 74 | 1022.4 |
| 20260510171114 | 20 | 25 | 8.0 | 17.7 | 0.00 | 0.00 | 0.00 | 74 | 1022.5 |
| 20260510170610 | 21 | 84 | 4.8 | 9.7 | 0.00 | 0.00 | 0.00 | 74 | 1022.4 |
| 20260510170107 | 21 | 3 | 4.8 | 9.7 | 0.00 | 0.00 | 0.00 | 74 | 1022.3 |
| 20260510165603 | 20 | 34 | 8.0 | 9.7 | 0.00 | 0.00 | 0.00 | 74 | 1022.6 |
| 20260510165058 | 20 | 49 | 4.8 | 12.9 | 0.00 | 0.00 | 0.00 | 74 | 1022.5 |
| 20260510164556 | 20 | 93 | 24.1 | 24.1 | 0.00 | 0.00 | 0.00 | 74 | 1022.3 |
| 20260510164052 | 20 | 100 | 8.0 | 9.7 | 0.00 | 0.00 | 0.00 | 74 | 1022.0 |
| 20260510163548 | 20 | 76 | 11.3 | 14.5 | 0.00 | 0.00 | 0.00 | 74 | 1022.2 |
| 20260510163045 | 20 | 48 | 8.0 | 14.5 | 0.00 | 0.00 | 0.00 | 74 | 1022.4 |
| 20260510162539 | 21 | 79 | 4.8 | 25.7 | 0.00 | 0.00 | 0.00 | 74 | 1021.9 |
| 20260510162036 | 21 | 57 | 9.7 | 17.7 | 0.00 | 0.00 | 0.00 | 74 | 1022.4 |
| 20260510161532 | 20 | 50 | 8.0 | 11.3 | 0.00 | 0.00 | 0.00 | 74 | 1022.0 |
| 20260510161029 | 21 | 103 | 8.0 | 8.0 | 0.00 | 0.00 | 0.00 | 74 | 1022.2 |
| 20260510160520 | 20 | 65 | 14.5 | 19.3 | 0.00 | 0.00 | 0.00 | 74 | 1022.0 |
| 20260510160020 | 20 | 70 | 8.0 | 17.7 | 0.00 | 0.00 | 0.00 | 73 | 1022.0 |
| 20260510155516 | 20 | 45 | 6.4 | 14.5 | 0.00 | 0.00 | 0.00 | 74 | 1022.2 |
| 20260510155013 | 20 | 28 | 4.8 | 9.7 | 0.00 | 0.00 | 0.00 | 73 | 1022.4 |
| 20260510154509 | 19 | 81 | 9.7 | 17.7 | 0.00 | 0.00 | 0.00 | 73 | 1022.4 |
| 20260510154009 | 19 | 0 | 6.4 | 16.1 | 0.00 | 0.00 | 0.00 | 73 | 1022.3 |
| 20260510153504 | 19 | 66 | 11.3 | 16.1 | 0.00 | 0.00 | 0.00 | 73 | 1022.2 |
| 20260510153002 | 19 | 47 | 12.9 | 17.7 | 0.00 | 0.00 | 0.00 | 73 | 1022.0 |
| 20260510152459 | 20 | 21 | 4.8 | 12.9 | 0.00 | 0.00 | 0.00 | 73 | 1022.2 |
| 20260510151954 | 19 | 30 | 8.0 | 16.1 | 0.00 | 0.00 | 0.00 | 73 | 1022.4 |
| 20260510151452 | 19 | 71 | 8.0 | 12.9 | 0.00 | 0.00 | 0.00 | 73 | 1022.0 |
| 20260510150948 | 20 | 109 | 9.7 | 11.3 | 0.00 | 0.00 | 0.00 | 74 | 1022.2 |
| 20260510150444 | 19 | 71 | 11.3 | 14.5 | 0.00 | 0.00 | 0.00 | 73 | 1022.3 |
| 20260510145940 | 19 | 30 | 6.4 | 11.3 | 0.00 | 0.00 | 0.00 | 73 | 1022.0 |
| 20260510145437 | 19 | 18 | 8.0 | 12.9 | 0.00 | 0.00 | 0.00 | 73 | 1022.0 |
| 20260510144933 | 19 | 21 | 6.4 | 9.7 | 0.00 | 0.00 | 0.00 | 73 | 1021.9 |
| 20260510144430 | 19 | 45 | 6.4 | 11.3 | 0.00 | 0.00 | 0.00 | 73 | 1021.9 |
| 20260510143925 | 19 | 11 | 6.4 | 11.3 | 0.00 | 0.00 | 0.00 | 73 | 1022.2 |
| 20260510143421 | 19 | 47 | 9.7 | 16.1 | 0.00 | 0.00 | 0.00 | 73 | 1021.8 |
| 20260510142918 | 18 | 15 | 6.4 | 17.7 | 0.00 | 0.00 | 0.00 | 73 | 1021.6 |
| 20260510142415 | 18 | 6 | 9.7 | 11.3 | 0.00 | 0.00 | 0.00 | 73 | 1021.6 |
| 20260510141911 | 18 | 90 | 11.3 | 11.3 | 0.00 | 0.00 | 0.00 | 73 | 1021.6 |
| 20260510141409 | 18 | 41 | 17.7 | 17.7 | 0.00 | 0.00 | 0.00 | 73 | 1021.4 |
| 20260510140906 | 18 | 53 | 3.2 | 4.8 | 0.00 | 0.00 | 0.00 | 73 | 1021.4 |
| 20260510140401 | 18 | 53 | 9.7 | 9.7 | 0.00 | 0.00 | 0.00 | 73 | 1021.4 |
| 20260510135855 | 18 | 90 | 0.0 | 8.0 | 0.00 | 0.00 | 0.00 | 73 | 1021.2 |
| 20260510135351 | -17 | 0.0 | 0.0 | 0.00 | 0.00 | 0.00 | 1021.2 | ||
| 20260510134849 | -17 | 0.0 | 0.0 | 0.00 | 0.00 | 0.00 | 1021.2 | ||
| 20260510134345 | -17 | 0.0 | 0.0 | 0.00 | 0.00 | 0.00 | 1021.1 | ||
| 20260510133841 | -17 | 0.0 | 0.0 | 0.00 | 0.00 | 0.00 | 1020.8 | ||
| 20260510133338 | -17 | 0.0 | 0.0 | 0.00 | 0.00 | 0.00 | 1020.8 | ||
| 20260510132834 | -17 | 0.0 | 0.0 | 0.00 | 0.00 | 0.00 | 1020.9 | ||
| 20260510132332 | -17 | 0.0 | 0.0 | 0.00 | 0.00 | 0.00 | 1020.7 | ||
| 20260510131828 | -17 | 0.0 | 0.0 | 0.00 | 0.00 | 0.00 | 1020.6 | ||
| 20260510131326 | -17 | 0.0 | 0.0 | 0.00 | 0.00 | 0.00 | 1020.5 | ||
| 20260510130822 | -17 | 0.0 | 0.0 | 0.00 | 0.00 | 0.00 | 1020.3 | ||
| 20260510130320 | -17 | 0.0 | 0.0 | 0.00 | 0.00 | 0.00 | 1020.6 | ||
| 20260510125816 | -17 | 0.0 | 0.0 | 0.00 | 0.00 | 0.00 | 1020.4 | ||
| 20260510125312 | -17 | 0.0 | 0.0 | 0.00 | 0.00 | 0.00 | 1020.4 | ||
| 20260510124809 | -17 | 0.0 | 0.0 | 0.00 | 0.00 | 0.00 | 1020.5 | ||
| 20260510124306 | -17 | 0.0 | 0.0 | 0.00 | 0.00 | 0.00 | 1020.4 | ||
| 20260510123802 | -17 | 0.0 | 0.0 | 0.00 | 0.00 | 0.00 | 1020.5 | ||
| 20260510123257 | -17 | 0.0 | 0.0 | 0.00 | 0.00 | 0.00 | 1020.3 | ||
| 20260510122754 | -17 | 0.0 | 0.0 | 0.00 | 0.00 | 0.00 | 1020.3 | ||
| 20260510122250 | -17 | 0.0 | 0.0 | 0.00 | 0.00 | 0.00 | 1020.6 | ||
| 20260510121747 | -17 | 0.0 | 0.0 | 0.00 | 0.00 | 0.00 | 1020.4 | ||
| 20260510121244 | -17 | 0.0 | 0.0 | 0.00 | 0.00 | 0.00 | 1020.3 | ||
| 20260510120742 | -17 | 0.0 | 0.0 | 0.00 | 0.00 | 0.00 | 1020.1 | ||
| 20260510120238 | -17 | 0.0 | 0.0 | 0.00 | 0.00 | 0.00 | 1020.0 | ||
| 20260510115734 | -17 | 0.0 | 0.0 | 0.00 | 0.00 | 0.00 | 1019.9 | ||
| 20260510115232 | -17 | 0.0 | 0.0 | 0.00 | 0.00 | 0.00 | 1019.9 | ||
| 20260510114727 | -17 | 0.0 | 0.0 | 0.00 | 0.00 | 0.00 | 1019.9 | ||
| 20260510114224 | -17 | 0.0 | 0.0 | 0.00 | 0.00 | 0.00 | 1019.8 | ||
| 20260510113719 | -17 | 0.0 | 0.0 | 0.00 | 0.00 | 0.00 | 1019.9 | ||
| 20260510113217 | -17 | 0.0 | 0.0 | 0.00 | 0.00 | 0.00 | 1019.7 | ||
| 20260510112712 | -17 | 0.0 | 0.0 | 0.00 | 0.00 | 0.00 | 1019.8 | ||
| 20260510112210 | -17 | 0.0 | 0.0 | 0.00 | 0.00 | 0.00 | 1019.6 | ||
| 20260510111706 | -17 | 0.0 | 0.0 | 0.00 | 0.00 | 0.00 | 1019.9 | ||
| 20260510111203 | -17 | 0.0 | 0.0 | 0.00 | 0.00 | 0.00 | 1019.8 | ||
| 20260510110702 | -17 | 0.0 | 0.0 | 0.00 | 0.00 | 0.00 | 1019.8 | ||
| 20260510110200 | -17 | 0.0 | 0.0 | 0.00 | 0.00 | 0.00 | 1019.4 | ||
| 20260510105655 | -17 | 0.0 | 0.0 | 0.00 | 0.00 | 0.00 | 1019.5 | ||
| 20260510105150 | -17 | 0.0 | 0.0 | 0.00 | 0.00 | 0.00 | 1019.8 | ||
| 20260510104647 | -17 | 0.0 | 0.0 | 0.00 | 0.00 | 0.00 | 1019.6 | ||
| 20260510104143 | -17 | 0.0 | 0.0 | 0.00 | 0.00 | 0.00 | 1019.4 | ||
| 20260510103635 | -17 | 0.0 | 0.0 | 0.00 | 0.00 | 0.00 | 1019.3 | ||
| 20260510103131 | -17 | 0.0 | 0.0 | 0.00 | 0.00 | 0.00 | 1019.2 | ||
| 20260510102626 | -17 | 0.0 | 0.0 | 0.00 | 0.00 | 0.00 | 1019.2 | ||
| 20260510102122 | -17 | 0.0 | 0.0 | 0.00 | 0.00 | 0.00 | 1019.1 | ||
| 20260510101620 | -17 | 0.0 | 0.0 | 0.00 | 0.00 | 0.00 | 1019.1 | ||
| 20260510101118 | -17 | 0.0 | 0.0 | 0.00 | 0.00 | 0.00 | 1018.8 | ||
| 20260510100614 | -17 | 0.0 | 0.0 | 0.00 | 0.00 | 0.00 | 1018.9 | ||
| 20260510100112 | -17 | 0.0 | 0.0 | 0.00 | 0.00 | 0.00 | 1018.7 | ||
| 20260510095607 | -17 | 0.0 | 0.0 | 0.00 | 0.00 | 0.00 | 1018.6 | ||
| 20260510095102 | -17 | 0.0 | 0.0 | 0.00 | 0.00 | 0.00 | 1018.7 | ||
| 20260510094601 | -17 | 0.0 | 0.0 | 0.00 | 0.00 | 0.00 | 1018.7 | ||
| 20260510094057 | -17 | 0.0 | 0.0 | 0.00 | 0.00 | 0.00 | 1018.4 | ||
| 20260510093553 | -17 | 0.0 | 0.0 | 0.00 | 0.00 | 0.00 | 1018.2 | ||
| 20260510093050 | -17 | 0.0 | 0.0 | 0.00 | 0.00 | 0.00 | 1018.3 | ||
| 20260510092547 | -17 | 0.0 | 0.0 | 0.00 | 0.00 | 0.00 | 1018.4 | ||
| 20260510092046 | -17 | 0.0 | 0.0 | 0.00 | 0.00 | 0.00 | 1018.2 | ||
| 20260510091544 | -17 | 0.0 | 0.0 | 0.00 | 0.00 | 0.00 | 1018.5 | ||
| 20260510091039 | -17 | 0.0 | 0.0 | 0.00 | 0.00 | 0.00 | 1018.5 | ||
| 20260510090537 | -17 | 0.0 | 0.0 | 0.00 | 0.00 | 0.00 | 1018.5 | ||
| 20260510090032 | -17 | 0.0 | 0.0 | 0.00 | 0.00 | 0.00 | 1018.8 | ||
| 20260510085533 | -17 | 0.0 | 0.0 | 0.00 | 0.00 | 0.00 | 1018.6 | ||
| 20260510085029 | -17 | 0.0 | 0.0 | 0.00 | 0.00 | 0.00 | 1018.8 | ||
| 20260510084526 | -17 | 0.0 | 0.0 | 0.00 | 0.00 | 0.00 | 1018.5 | ||
| 20260510084023 | -17 | 0.0 | 0.0 | 0.00 | 0.00 | 0.00 | 1018.6 | ||
| 20260510083519 | -17 | 0.0 | 0.0 | 0.00 | 0.00 | 0.00 | 1018.9 | ||
| 20260510083015 | -17 | 0.0 | 0.0 | 0.00 | 0.00 | 0.00 | 1018.6 | ||
| 20260510082513 | -17 | 0.0 | 0.0 | 0.00 | 0.00 | 0.00 | 1018.3 | ||
| 20260510082013 | -17 | 0.0 | 0.0 | 0.00 | 0.00 | 0.00 | 1018.1 | ||
| 20260510081508 | -17 | 0.0 | 0.0 | 0.00 | 0.00 | 0.00 | 1018.1 | ||
| 20260510081005 | -17 | 0.0 | 0.0 | 0.00 | 0.00 | 0.00 | 1018.1 | ||
| 20260510080503 | -17 | 0.0 | 0.0 | 0.00 | 0.00 | 0.00 | 1017.9 | ||
| 20260510080000 | -17 | 0.0 | 0.0 | 0.00 | 0.00 | 0.00 | 1018.1 | ||
| 20260510075458 | -17 | 0.0 | 0.0 | 0.00 | 0.00 | 0.00 | 1017.9 | ||
| 20260510074954 | -17 | 0.0 | 0.0 | 0.00 | 0.00 | 0.00 | 1017.5 | ||
| 20260510074452 | -17 | 0.0 | 0.0 | 0.00 | 0.00 | 0.00 | 1017.6 | ||
| 20260510073947 | -17 | 0.0 | 0.0 | 0.00 | 0.00 | 0.00 | 1017.7 | ||
| 20260510073443 | -17 | 0.0 | 0.0 | 0.00 | 0.00 | 0.00 | 1017.5 | ||
| 20260510072940 | -17 | 0.0 | 0.0 | 0.00 | 0.00 | 0.00 | 1017.6 | ||
| 20260510072437 | -17 | 0.0 | 0.0 | 0.00 | 0.00 | 0.00 | 1017.7 | ||
| 20260510071932 | -17 | 0.0 | 0.0 | 0.00 | 0.00 | 0.00 | 1017.8 | ||
| 20260510071429 | -17 | 0.0 | 0.0 | 0.00 | 0.00 | 0.00 | 1017.7 | ||
| 20260510070927 | -17 | 0.0 | 0.0 | 0.00 | 0.00 | 0.00 | 1017.8 | ||
| 20260510070424 | -17 | 0.0 | 0.0 | 0.00 | 0.00 | 0.00 | 1017.5 | ||
| 20260510065920 | -17 | 0.0 | 0.0 | 0.00 | 0.00 | 0.00 | 1018.0 | ||
| 20260510065416 | -17 | 0.0 | 0.0 | 0.00 | 0.00 | 0.00 | 1017.9 | ||
| 20260510064913 | -17 | 0.0 | 0.0 | 0.00 | 0.00 | 0.00 | 1017.8 | ||
| 20260510064411 | -17 | 0.0 | 0.0 | 0.00 | 0.00 | 0.00 | 1017.9 | ||
| 20260510063907 | -17 | 0.0 | 0.0 | 0.00 | 0.00 | 0.00 | 1017.9 | ||
| 20260510063403 | -17 | 0.0 | 0.0 | 0.00 | 0.00 | 0.00 | 1018.1 | ||
| 20260510062901 | -17 | 0.0 | 0.0 | 0.00 | 0.00 | 0.00 | 1017.8 | ||
| 20260510062355 | -17 | 0.0 | 0.0 | 0.00 | 0.00 | 0.00 | 1018.1 | ||
| 20260510061851 | -17 | 0.0 | 0.0 | 0.00 | 0.00 | 0.00 | 1018.0 | ||
| 20260510061348 | 20 | 255 | 4.8 | 9.7 | 0.00 | 0.00 | 0.00 | 73 | 1018.0 |
| 20260510060844 | 20 | 255 | 4.8 | 9.7 | 0.00 | 0.00 | 0.00 | 73 | 1018.1 |
| 20260510060342 | 20 | 255 | 4.8 | 9.7 | 0.00 | 0.00 | 0.00 | 73 | 1017.9 |
| 20260510055838 | 20 | 255 | 4.8 | 9.7 | 0.00 | 0.00 | 0.00 | 73 | 1017.8 |
| 20260510055337 | 20 | 255 | 4.8 | 9.7 | 0.00 | 0.00 | 0.00 | 73 | 1018.0 |
| 20260510054836 | 20 | 255 | 4.8 | 9.7 | 0.00 | 0.00 | 0.00 | 73 | 1017.9 |
| 20260510054332 | 20 | 255 | 4.8 | 9.7 | 0.00 | 0.00 | 0.00 | 73 | 1017.9 |
| 20260510053827 | 20 | 255 | 4.8 | 9.7 | 0.00 | 0.00 | 0.00 | 73 | 1018.0 |
| 20260510053323 | 20 | 255 | 4.8 | 9.7 | 0.00 | 0.00 | 0.00 | 73 | 1017.6 |
| 20260510052820 | 20 | 255 | 4.8 | 9.7 | 0.00 | 0.00 | 0.00 | 73 | 1017.7 |
| 20260510052315 | 20 | 255 | 4.8 | 9.7 | 0.00 | 0.00 | 0.00 | 73 | 1018.0 |
| 20260510051812 | 20 | 255 | 4.8 | 9.7 | 0.00 | 0.00 | 0.00 | 73 | 1017.7 |
| 20260510051309 | 20 | 227 | 16.1 | 16.1 | 0.00 | 0.00 | 0.00 | 74 | 1017.8 |
| 20260510050806 | 20 | 227 | 16.1 | 16.1 | 0.00 | 0.00 | 0.00 | 74 | 1017.9 |
| 20260510050302 | 20 | 204 | 11.3 | 11.3 | 0.00 | 0.00 | 0.00 | 74 | 1017.7 |
| 20260510045800 | 20 | 219 | 8.0 | 8.0 | 0.00 | 0.00 | 0.00 | 74 | 1017.6 |
| 20260510045256 | 20 | 219 | 8.0 | 8.0 | 0.00 | 0.00 | 0.00 | 74 | 1017.3 |
| 20260510044753 | 20 | 207 | 6.4 | 20.9 | 0.00 | 0.00 | 0.00 | 74 | 1017.5 |
| 20260510044250 | 20 | 207 | 6.4 | 20.9 | 0.00 | 0.00 | 0.00 | 74 | 1017.2 |
| 20260510043746 | 20 | 222 | 9.7 | 9.7 | 0.00 | 0.00 | 0.00 | 74 | 1017.4 |
| 20260510043243 | 20 | 199 | 9.7 | 20.9 | 0.00 | 0.00 | 0.00 | 74 | 1017.2 |
| 20260510042740 | 20 | 213 | 8.0 | 12.9 | 0.00 | 0.00 | 0.00 | 73 | 1017.4 |
| 20260510042236 | 20 | 213 | 8.0 | 12.9 | 0.00 | 0.00 | 0.00 | 73 | 1017.4 |
| 20260510041733 | 20 | 201 | 11.3 | 11.3 | 0.00 | 0.00 | 0.00 | 73 | 1017.4 |
| 20260510041230 | 20 | 215 | 6.4 | 11.3 | 0.00 | 0.00 | 0.00 | 74 | 1017.4 |
| 20260510040727 | 20 | 201 | 4.8 | 8.0 | 0.00 | 0.00 | 0.00 | 74 | 1017.5 |
| 20260510040224 | 20 | 201 | 4.8 | 8.0 | 0.00 | 0.00 | 0.00 | 74 | 1017.2 |
| 20260510035719 | 20 | 201 | 4.8 | 8.0 | 0.00 | 0.00 | 0.00 | 74 | 1017.3 |
| 20260510035215 | 20 | 201 | 4.8 | 8.0 | 0.00 | 0.00 | 0.00 | 74 | 1017.4 |
| 20260510034711 | 20 | 201 | 4.8 | 8.0 | 0.00 | 0.00 | 0.00 | 74 | 1017.4 |
| 20260510034210 | 20 | 201 | 4.8 | 8.0 | 0.00 | 0.00 | 0.00 | 74 | 1017.4 |
| 20260510033705 | 20 | 201 | 4.8 | 8.0 | 0.00 | 0.00 | 0.00 | 74 | 1017.3 |
| 20260510033203 | 20 | 201 | 4.8 | 8.0 | 0.00 | 0.00 | 0.00 | 74 | 1017.1 |
| 20260510032659 | 20 | 201 | 4.8 | 8.0 | 0.00 | 0.00 | 0.00 | 74 | 1017.2 |
| 20260510032155 | 20 | 201 | 4.8 | 8.0 | 0.00 | 0.00 | 0.00 | 74 | 1017.0 |
| 20260510031649 | 20 | 201 | 4.8 | 8.0 | 0.00 | 0.00 | 0.00 | 74 | 1017.3 |
| 20260510031146 | 20 | 201 | 4.8 | 8.0 | 0.00 | 0.00 | 0.00 | 74 | 1017.0 |
| 20260510030641 | -17 | 0.0 | 0.0 | 0.00 | 0.00 | 0.00 | 1017.0 | ||
| 20260510030139 | -17 | 0.0 | 0.0 | 0.00 | 0.00 | 0.00 | 1017.0 | ||
| 20260510025636 | -17 | 0.0 | 0.0 | 0.00 | 0.00 | 0.00 | 1016.9 | ||
| 20260510025133 | -17 | 0.0 | 0.0 | 0.00 | 0.00 | 0.00 | 1016.9 | ||
| 20260510024630 | -17 | 0.0 | 0.0 | 0.00 | 0.00 | 0.00 | 1016.4 | ||
| 20260510024126 | -17 | 0.0 | 0.0 | 0.00 | 0.00 | 0.00 | 1016.7 | ||
| 20260510023622 | -17 | 0.0 | 0.0 | 0.00 | 0.00 | 0.00 | 1016.5 | ||
| 20260510023120 | -17 | 0.0 | 0.0 | 0.00 | 0.00 | 0.00 | 1016.4 | ||
| 20260510022619 | -17 | 0.0 | 0.0 | 0.00 | 0.00 | 0.00 | 1016.3 | ||
| 20260510022114 | -17 | 0.0 | 0.0 | 0.00 | 0.00 | 0.00 | 1016.1 | ||
| 20260510021610 | -17 | 0.0 | 0.0 | 0.00 | 0.00 | 0.00 | 1016.2 | ||
| 20260510021108 | -17 | 0.0 | 0.0 | 0.00 | 0.00 | 0.00 | 1016.0 | ||
| 20260510020602 | -17 | 0.0 | 0.0 | 0.00 | 0.00 | 0.00 | 1015.8 | ||
| 20260510020058 | -17 | 0.0 | 0.0 | 0.00 | 0.00 | 0.00 | 1015.7 | ||
| 20260510015554 | -17 | 0.0 | 0.0 | 0.00 | 0.00 | 0.00 | 1015.7 | ||
| 20260510015050 | -17 | 0.0 | 0.0 | 0.00 | 0.00 | 0.00 | 1015.7 | ||
| 20260510014546 | -17 | 0.0 | 0.0 | 0.00 | 0.00 | 0.00 | 1015.5 | ||
| 20260510014043 | -17 | 0.0 | 0.0 | 0.00 | 0.00 | 0.00 | 1015.5 | ||
| 20260510013538 | -17 | 0.0 | 0.0 | 0.00 | 0.00 | 0.00 | 1015.3 | ||
| 20260510013034 | -17 | 0.0 | 0.0 | 0.00 | 0.00 | 0.00 | 1015.5 | ||
| 20260510012528 | -17 | 0.0 | 0.0 | 0.00 | 0.00 | 0.00 | 1015.3 | ||
| 20260510012025 | -17 | 0.0 | 0.0 | 0.00 | 0.00 | 0.00 | 1015.6 | ||
| 20260510011524 | -17 | 0.0 | 0.0 | 0.00 | 0.00 | 0.00 | 1015.3 | ||
| 20260510011020 | -17 | 0.0 | 0.0 | 0.00 | 0.00 | 0.00 | 1015.3 | ||
| 20260510010517 | -17 | 0.0 | 0.0 | 0.00 | 0.00 | 0.00 | 1015.4 | ||
| 20260510010014 | -17 | 0.0 | 0.0 | 0.00 | 0.00 | 0.00 | 1015.3 | ||
| 20260510005509 | -17 | 0.0 | 0.0 | 0.00 | 0.00 | 0.00 | 1015.0 | ||
| 20260510005008 | -17 | 0.0 | 0.0 | 0.00 | 0.00 | 0.00 | 1015.2 | ||
| 20260510004505 | -17 | 0.0 | 0.0 | 0.00 | 0.00 | 0.00 | 1015.3 | ||
| 20260510004003 | -17 | 0.0 | 0.0 | 0.00 | 0.00 | 0.00 | 1015.1 | ||
| 20260510003459 | -17 | 0.0 | 0.0 | 0.00 | 0.00 | 0.00 | 1014.9 | ||
| 20260510002955 | -17 | 0.0 | 0.0 | 0.00 | 0.00 | 0.00 | 1015.0 | ||
| 20260510002451 | -17 | 0.0 | 0.0 | 0.00 | 0.00 | 0.00 | 1014.9 | ||
| 20260510001947 | 27 | 140 | 8.0 | 8.0 | 0.00 | 0.00 | 0.00 | 75 | 1014.9 |
| 20260510001445 | 27 | 140 | 8.0 | 8.0 | 0.00 | 0.00 | 0.00 | 75 | 1014.9 |
| 20260510000943 | 27 | 140 | 8.0 | 8.0 | 0.00 | 0.00 | 0.00 | 75 | 1014.9 |
| 20260510000440 | 27 | 140 | 8.0 | 8.0 | 0.00 | 0.00 | 0.00 | 75 | 1014.7 |
| 20260509235935 | 27 | 140 | 8.0 | 8.0 | 0.00 | 0.00 | 0.00 | 75 | 1014.9 |
| 20260509235432 | 27 | 140 | 8.0 | 8.0 | 0.00 | 0.00 | 0.00 | 75 | 1014.6 |
| 20260509234928 | 27 | 140 | 8.0 | 8.0 | 0.00 | 0.00 | 0.00 | 75 | 1014.7 |